Location: Tambov
(52.7163°N, 41.4075°E)
Time: 19:50:48
(UTC+03:00)

Envisat - Pass Details

Date: 10 March 2021
Orbit: 764 x 766 km, 98.1° (Epoch: 17 April)

Event Time Altitude Azimuth Distance (km) Brightness Sun altitude
Rises 05:15:57 0° 20° (NNE) 3,247 6.7 -13.6°
Reaches altitude 10° 05:18:29 10° 30° (NNE) 2,315 6.1 -13.2°
Maximum altitude 05:23:07 34° 95° (E) 1,248 4.9 -12.5°
Drops below altitude 10° 05:27:42 10° 160° (SSE) 2,298 5.6 -11.8°
Sets 05:30:12 0° 169° (S) 3,219 6.3 -11.5°
